Location: Port-Aux-Quilles Astronomical Observatory
(47.9769°N, 69.9642°W)
Time: 10:38:22
(UTC-05:00)

Envisat - Pass Details

Date: 24 October 2019
Orbit: 764 x 766 km, 98.1° (Epoch: 20 November)

Event Time Altitude Azimuth Distance (km) Brightness Sun altitude
Rises 06:24:40 0° 27° (NNE) 3,243 6.5 -8.6°
Reaches altitude 10° 06:27:42 10° 46° (NE) 2,311 6.0 -8.1°
Maximum altitude 06:31:12 18° 90° (E) 1,792 6.2 -7.5°
Drops below altitude 10° 06:34:40 10° 133° (SE) 2,298 6.5 -6.9°
Sets 06:37:39 0° 152° (SSE) 3,218 6.8 -6.4°
